TimeCST,TemperatureF,Dew PointF,Humidity,Sea Level PressureIn,VisibilityMPH,Wind Direction,Wind SpeedMPH,Gust SpeedMPH,PrecipitationIn,Events,Conditions,WindDirDegrees,DateUTC
12:52 AM,54.0,33.1,45,29.80,10.0,NNW,10.4,-,N/A,,Overcast,340,2012-12-06 06:52:00
1:52 AM,54.0,33.1,45,29.81,10.0,North,20.7,29.9,N/A,,Overcast,350,2012-12-06 07:52:00
2:52 AM,48.9,26.1,41,29.88,10.0,North,19.6,29.9,N/A,,Overcast,360,2012-12-06 08:52:00
3:52 AM,46.9,21.9,37,29.92,10.0,North,15.0,27.6,N/A,,Overcast,350,2012-12-06 09:52:00
4:52 AM,45.0,21.0,39,29.96,10.0,North,17.3,28.8,N/A,,Overcast,360,2012-12-06 10:52:00
5:52 AM,43.0,19.0,38,29.99,10.0,NNW,15.0,24.2,N/A,,Overcast,340,2012-12-06 11:52:00
6:52 AM,42.1,16.0,35,29.99,10.0,NNW,11.5,20.7,N/A,,Overcast,340,2012-12-06 12:52:00
7:52 AM,41.0,16.0,36,30.03,10.0,NNW,13.8,21.9,N/A,,Overcast,340,2012-12-06 13:52:00
8:52 AM,41.0,15.1,35,30.04,10.0,North,18.4,24.2,N/A,,Overcast,350,2012-12-06 14:52:00
9:52 AM,41.0,15.1,35,30.06,10.0,NNW,12.7,-,N/A,,Overcast,330,2012-12-06 15:52:00
10:52 AM,41.0,14.0,33,30.08,10.0,NW,16.1,-,N/A,,Overcast,310,2012-12-06 16:52:00
11:52 AM,39.0,19.9,46,30.07,6.0,NNW,12.7,23.0,N/A,,Haze,330,2012-12-06 17:52:00
12:52 PM,39.9,21.0,47,30.05,10.0,WNW,6.9,-,N/A,,Overcast,300,2012-12-06 18:52:00
1:52 PM,41.0,19.9,43,30.03,10.0,NW,4.6,-,N/A,,Overcast,310,2012-12-06 19:52:00
2:52 PM,42.1,17.1,37,30.03,10.0,NW,6.9,-,N/A,,Overcast,310,2012-12-06 20:52:00
3:52 PM,42.1,14.0,32,30.01,10.0,NNW,5.8,-,N/A,,Overcast,330,2012-12-06 21:52:00
4:52 PM,41.0,12.9,32,30.01,10.0,NNW,5.8,-,N/A,,Overcast,340,2012-12-06 22:52:00
5:52 PM,39.0,14.0,36,30.02,10.0,North,4.6,-,N/A,,Overcast,360,2012-12-06 23:52:00
6:52 PM,37.0,18.0,46,30.03,10.0,Calm,Calm,-,N/A,,Overcast,0,2012-12-07 00:52:00
7:52 PM,36.0,21.9,57,30.04,10.0,Calm,Calm,-,N/A,,Overcast,0,2012-12-07 01:52:00
8:52 PM,36.0,23.0,59,30.03,10.0,Calm,Calm,-,N/A,,Overcast,0,2012-12-07 02:52:00
9:52 PM,35.1,23.0,61,30.03,10.0,ENE,4.6,-,N/A,,Overcast,70,2012-12-07 03:52:00
10:52 PM,35.1,21.0,57,30.01,10.0,East,5.8,-,N/A,,Overcast,100,2012-12-07 04:52:00
11:52 PM,35.1,18.0,50,30.01,10.0,ESE,4.6,-,N/A,,Mostly Cloudy,120,2012-12-07 05:52:00